GW5677 Weather Reports


time (UTC)temp
F
wind
direction
speed
knots
gust
knots
rain 1hr
in
rain 24hr
in
rain mn
in
humidity
%
barometer
mb
20260504110438 44 244 3.5 5.2 0.00 0.00 0.00 66 1011.5
20260504100401 43 265 3.5 3.5 0.00 0.00 0.00 58 1010.8
20260504081754 47 253 3.5 7.0 0.00 0.00 0.00 47 1011.0
20260504081250 47 6 1.7 2.6 0.00 0.00 0.00 47 1010.9
20260504080747 46 33 2.6 3.5 0.00 0.00 0.00 48 1011.1
20260504080243 46 213 3.5 5.2 0.00 0.00 0.00 46 1010.9
20260504070211 46 324 1.7 1.7 0.00 0.00 0.00 44 1011.0
20260504060131 46 58 1.7 1.7 0.00 0.00 0.00 41 1011.6
20260504050600 47 289 1.7 2.6 0.00 0.00 0.00 40 1012.1
20260504045553 46 331 0.9 1.7 0.00 0.00 0.00 41 1011.7
20260504045048 47 299 0.9 0.9 0.00 0.00 0.00 40 1011.8
20260504044546 47 334 0.9 0.9 0.00 0.00 0.00 40 1011.7
20260504044043 47 319 1.7 2.6 0.00 0.00 0.00 40 1011.7
20260504043540 47 316 1.7 2.6 0.00 0.00 0.00 40 1011.5
20260504043037 47 329 1.7 1.7 0.00 0.00 0.00 40 1011.6
20260504042534 46 234 3.5 3.5 0.00 0.00 0.00 41 1011.6
20260504042031 46 271 1.7 1.7 0.00 0.00 0.00 44 1011.5
20260504041527 46 212 1.7 2.6 0.00 0.00 0.00 44 1011.4
20260504041023 46 261 1.7 2.6 0.00 0.00 0.00 45 1011.4
20260504040521 46 296 1.7 2.6 0.00 0.00 0.00 43 1011.4
20260504040018 46 269 1.7 2.6 0.00 0.00 0.00 47 1011.2
20260504035515 46 293 3.5 3.5 0.00 0.00 0.00 43 1011.5
20260504035011 46 295 2.6 2.6 0.00 0.00 0.00 44 1011.8
20260504034509 46 318 1.7 2.6 0.00 0.00 0.00 45 1011.5
20260504034006 46 241 2.6 3.5 0.00 0.00 0.00 44 1011.5
20260504033503 46 284 2.6 2.6 0.00 0.00 0.00 45 1011.4
20260504033000 46 274 2.6 5.2 0.00 0.00 0.00 43 1011.4
20260504032457 46 323 1.7 2.6 0.00 0.00 0.00 45 1011.4
20260504031954 46 254 1.7 1.7 0.00 0.00 0.00 44 1011.5
20260504031450 47 284 3.5 5.2 0.00 0.00 0.00 43 1011.2
20260504030947 46 13 0.9 0.9 0.00 0.00 0.00 46 1011.5
20260504030445 47 252 0.9 1.7 0.00 0.00 0.00 44 1011.5
20260504025940 47 269 2.6 3.5 0.00 0.00 0.00 42 1011.5
20260504025437 47 258 1.7 2.6 0.00 0.00 0.00 43 1011.4
20260504024934 47 184 2.6 3.5 0.00 0.00 0.00 42 1011.4
20260504024431 47 277 0.9 1.7 0.00 0.00 0.00 42 1011.5
20260504023928 47 15 0.9 0.9 0.00 0.00 0.00 43 1011.5
20260504023425 47 267 0.9 0.9 0.00 0.00 0.00 44 1011.5
20260504022920 47 242 2.6 2.6 0.00 0.00 0.00 41 1011.4
20260504022417 47 108 1.7 2.6 0.00 0.00 0.00 41 1011.5
20260504021914 47 23 0.0 0.9 0.00 0.00 0.00 42 1011.4
20260504021411 47 146 2.6 5.2 0.00 0.00 0.00 41 1011.2
20260504020908 46 245 0.9 0.9 0.00 0.00 0.00 42 1011.4
20260504020405 47 73 0.9 1.7 0.00 0.00 0.00 41 1011.4
20260504015901 46 340 0.9 0.9 0.00 0.00 0.00 42 1011.1
20260504015357 46 286 1.7 1.7 0.00 0.00 0.00 41 1011.2
20260504014853 46 33 0.9 0.9 0.00 0.00 0.00 41 1011.1
20260504014349 46 100 0.9 0.9 0.00 0.00 0.00 41 1011.1
20260504013847 46 91 1.7 2.6 0.00 0.00 0.00 41 1011.1
20260504013345 46 148 0.9 1.7 0.00 0.00 0.00 41 1011.1
20260504012841 46 62 0.0 0.9 0.00 0.00 0.00 39 1011.0
20260504012339 46 103 1.7 2.6 0.00 0.00 0.00 40 1011.1
20260504011836 46 129 0.0 0.9 0.00 0.00 0.00 39 1011.0
20260504011332 46 10 0.0 0.9 0.00 0.00 0.00 39 1010.9
20260504010829 47 120 0.0 1.7 0.00 0.00 0.00 39 1011.0
20260504010324 47 118 1.7 2.6 0.00 0.00 0.00 38 1010.9
20260504005821 46 129 0.9 1.7 0.00 0.00 0.00 39 1011.1
20260504005318 46 129 0.0 0.0 0.00 0.00 0.00 39 1011.0
20260504004816 46 142 0.9 1.7 0.00 0.00 0.00 39 1010.8
20260504004313 47 135 0.0 0.0 0.00 0.00 0.00 39 1010.8
20260504003809 47 128 0.0 0.0 0.00 0.00 0.00 39 1011.0
20260504003307 47 97 0.0 0.0 0.00 0.00 0.00 38 1011.0
20260504002803 47 99 0.9 0.9 0.00 0.00 0.00 37 1010.9
20260504002300 47 72 0.0 0.9 0.00 0.00 0.00 38 1010.8
20260504001758 47 56 0.0 0.0 0.00 0.00 0.00 37 1010.9
20260504001254 47 62 0.0 0.0 0.00 0.00 0.00 38 1010.9
20260504000751 48 270 0.0 0.0 0.00 0.00 0.00 37 1010.9
20260504000248 48 100 0.9 0.9 0.00 0.00 0.00 37 1010.7
20260503235746 49 335 0.0 0.9 0.00 0.00 0.00 36 1011.0
20260503235243 50 4 0.0 0.0 0.00 0.00 0.00 36 1010.9
20260503234741 50 231 0.9 1.7 0.00 0.00 0.00 35 1010.8
20260503234239 50 311 0.0 0.0 0.00 0.00 0.00 36 1010.9
20260503233736 51 264 0.9 0.9 0.00 0.00 0.00 37 1010.7
20260503233231 51 1 0.0 0.9 0.00 0.00 0.00 35 1010.6
20260503232728 51 247 2.6 2.6 0.00 0.00 0.00 33 1010.9
20260503232226 51 203 1.7 1.7 0.00 0.00 0.00 34 1010.7
20260503231724 52 269 0.9 1.7 0.00 0.00 0.00 36 1010.7
20260503231220 52 276 1.7 1.7 0.00 0.00 0.00 35 1010.9
20260503230716 52 341 3.5 3.5 0.00 0.00 0.00 33 1010.8
20260503230214 51 193 0.9 0.9 0.00 0.00 0.00 34 1010.6
20260503225712 51 169 5.2 7.0 0.00 0.00 0.00 33 1010.4
20260503225211 52 257 1.7 2.6 0.00 0.00 0.00 35 1010.6
20260503224709 52 274 1.7 2.6 0.00 0.00 0.00 33 1010.6
20260503224207 51 279 2.6 3.5 0.00 0.00 0.00 33 1010.6
20260503223704 51 282 4.3 5.2 0.00 0.00 0.00 33 1010.6
20260503223201 52 267 2.6 3.5 0.00 0.00 0.00 34 1010.5
20260503222658 52 324 3.5 3.5 0.00 0.00 0.00 35 1010.3
20260503222155 52 292 3.5 3.5 0.00 0.00 0.00 33 1010.5
20260503221654 51 294 4.3 6.1 0.00 0.00 0.00 33 1010.3
20260503221151 52 316 3.5 6.1 0.00 0.00 0.00 32 1010.0
20260503220647 53 277 3.5 3.5 0.00 0.00 0.00 32 1010.4
20260503220144 52 294 2.6 2.6 0.00 0.00 0.00 34 1010.6
20260503215641 52 264 3.5 6.1 0.00 0.00 0.00 33 1010.5
20260503215137 52 265 3.5 7.0 0.00 0.00 0.00 33 1010.4
20260503214631 53 242 1.7 2.6 0.00 0.00 0.00 32 1010.4
20260503214126 52 259 1.7 2.6 0.00 0.00 0.00 33 1010.6
20260503213620 53 320 3.5 3.5 0.00 0.00 0.00 33 1010.4
20260503213116 52 280 5.2 7.0 0.00 0.00 0.00 34 1010.4
20260503212614 52 250 6.1 7.8 0.00 0.00 0.00 33 1010.1
20260503212111 52 241 3.5 7.0 0.00 0.00 0.00 32 1010.3
20260503211609 52 276 4.3 7.0 0.00 0.00 0.00 33 1010.0
20260503211104 52 250 1.7 3.5 0.00 0.00 0.00 34 1010.4
20260503210600 52 306 3.5 5.2 0.00 0.00 0.00 35 1010.4
20260503210055 52 296 1.7 1.7 0.00 0.00 0.00 35 1010.3
20260503205553 52 285 5.2 6.1 0.00 0.00 0.00 34 1010.4
20260503205049 52 243 6.1 7.0 0.00 0.00 0.00 35 1010.4
20260503204547 51 263 2.6 3.5 0.00 0.00 0.00 34 1010.3
20260503204044 52 259 4.3 5.2 0.00 0.00 0.00 35 1010.4
20260503203541 52 311 3.5 5.2 0.00 0.00 0.00 34 1010.7
20260503203038 51 254 4.3 6.1 0.00 0.00 0.00 34 1010.5
20260503202536 51 276 4.3 5.2 0.00 0.00 0.00 37 1010.3
20260503202033 50 289 6.1 8.7 0.00 0.00 0.00 35 1010.6
20260503201531 50 262 3.5 5.2 0.00 0.00 0.00 35 1010.7
20260503201028 51 23 4.3 6.1 0.00 0.00 0.00 37 1010.5
20260503200524 50 207 4.3 7.0 0.00 0.00 0.00 37 1010.5
20260503200021 51 342 0.9 1.7 0.00 0.00 0.00 38 1010.9
20260503195518 50 246 6.1 7.8 0.00 0.00 0.00 39 1010.8
20260503195015 51 260 6.1 7.0 0.00 0.00 0.00 36 1010.8
20260503194513 50 248 1.7 2.6 0.00 0.00 0.00 39 1010.7
20260503194012 50 324 5.2 7.8 0.00 0.00 0.00 37 1010.7
20260503193509 50 218 4.3 6.1 0.00 0.00 0.00 38 1010.9
20260503193004 50 318 4.3 7.8 0.00 0.00 0.00 38 1011.0
20260503192500 50 242 4.3 7.0 0.00 0.00 0.00 38 1010.9
20260503191956 50 250 5.2 6.1 0.00 0.00 0.00 38 1011.0
20260503191454 49 255 3.5 6.1 0.00 0.00 0.00 41 1011.0
20260503190950 49 290 1.7 5.2 0.00 0.00 0.00 42 1011.0
20260503190448 49 277 3.5 6.1 0.00 0.00 0.00 44 1011.1
20260503185945 48 289 2.6 3.5 0.00 0.00 0.00 43 1011.4
20260503185441 49 291 4.3 6.1 0.00 0.00 0.00 42 1011.5
20260503184940 48 255 5.2 7.0 0.00 0.00 0.00 41 1011.5
20260503184437 47 283 4.3 6.1 0.00 0.00 0.00 41 1011.8
20260503183933 48 286 2.6 3.5 0.00 0.00 0.00 44 1011.6
20260503183430 47 297 4.3 6.1 0.00 0.00 0.00 44 1011.6
20260503182927 49 271 4.3 7.0 0.00 0.00 0.00 41 1011.7
20260503182426 47 272 5.2 5.2 0.00 0.00 0.00 44 1011.4
20260503181923 48 274 5.2 7.0 0.00 0.00 0.00 43 1011.7
20260503181420 46 269 6.1 7.0 0.00 0.00 0.00 44 1011.6
20260503180916 47 245 5.2 6.1 0.00 0.00 0.00 45 1011.5
20260503180414 46 290 4.3 6.1 0.00 0.00 0.00 45 1011.5
20260503175910 46 292 6.1 7.8 0.00 0.00 0.00 44 1011.6
20260503175408 45 289 4.3 6.1 0.00 0.00 0.00 45 1011.8
20260503174903 45 281 5.2 6.1 0.00 0.00 0.00 46 1011.7
20260503174402 45 247 7.0 9.6 0.00 0.00 0.00 48 1011.5
20260503173856 44 234 3.5 3.5 0.00 0.00 0.00 47 1011.7
20260503173353 46 275 7.8 11.3 0.00 0.00 0.00 46 1011.6
20260503172849 45 242 5.2 6.1 0.00 0.00 0.00 47 1011.2
20260503172347 45 247 8.7 9.6 0.00 0.00 0.00 48 1011.6
20260503171843 44 241 5.2 6.1 0.00 0.00 0.00 47 1011.5
20260503171340 46 305 1.7 3.5 0.00 0.00 0.00 52 1011.5
20260503170837 45 254 3.5 5.2 0.00 0.00 0.00 50 1011.7
20260503170334 44 277 5.2 7.0 0.00 0.00 0.00 48 1011.7
20260503150726 39 276 7.8 12.2 0.00 0.00 0.00 55 1012.3
20260503150222 38 20 1.7 2.6 0.00 0.00 0.00 58 1012.2
20260503140147 36 270 9.6 12.2 0.00 0.00 0.00 61 1011.6
20260503131116 34 293 5.2 5.2 0.00 0.00 0.00 68 1011.5
20260503130614 34 308 11.3 15.6 0.00 0.00 0.00 67 1011.1
20260503130112 34 270 4.3 5.2 0.00 0.00 0.00 71 1011.2